Powrót do katalogu

STARLINK-32366

AktywnyŁącznośćVLEO
NORAD 61551·PAYLOAD·🇺🇸 United States

Wystrzelony Oct 15, 2024 z Vandenberg Space Force Base

Loading…

Następne Przeloty (najbliższe 24 godziny)

TLE

ŚwieżeSource: CelesTrak SupGP

Epoka: Sep 15, 2026, 03:08 UTC

1 61551C 24184V   26258.13104167 -.00063845  00000+0 -18865-2 0  2588
2 61551  53.1574 210.6667 0001338  88.0728  85.7663 15.34419446    18

Śledź STARLINK-32366 w czasie rzeczywistym z AllMySat

Download on the App Store